NR6G-1 Weather Reports


time (UTC)temp
F
wind
direction
speed
knots
gust
knots
rain 1hr
in
rain 24hr
in
rain mn
in
humidity
%
barometer
mb
20260506140025 55 96 0.0 2.6 0.00 0.00 0.00 78 1018.1
20260506134518 53 37 0.0 1.7 0.00 0.00 0.00 82 1017.9
20260506133016 51 73 0.0 0.9 0.00 0.00 0.00 86 1017.8
20260506131515 50 73 0.0 0.9 0.00 0.00 0.00 86 1017.7
20260506130008 51 73 0.0 0.9 0.00 0.00 0.00 85 1017.5
20260506124506 51 73 0.0 0.0 0.00 0.00 0.00 85 1017.3
20260506123006 51 73 0.0 0.9 0.00 0.00 0.00 85 1017.3
20260506121505 51 73 0.0 0.9 0.00 0.00 0.00 84 1017.3
20260506120002 52 73 0.0 0.9 0.00 0.00 0.00 83 1017.2
20260506114500 52 73 0.0 0.0 0.00 0.00 0.00 83 1017.2
20260506113106 52 73 0.0 1.7 0.00 0.00 0.00 82 1017.0
20260506111555 53 73 0.0 0.9 0.00 0.00 0.00 82 1017.0
20260506110101 53 73 0.0 0.9 0.00 0.00 0.00 81 1016.8
20260506104605 53 73 0.0 0.9 0.00 0.00 0.00 82 1016.6
20260506103050 53 73 0.0 0.0 0.00 0.00 0.00 81 1016.5
20260506101555 54 73 0.0 0.9 0.00 0.00 0.00 80 1016.3
20260506100046 54 73 0.0 0.9 0.00 0.00 0.00 80 1016.3
20260506094554 54 73 0.0 0.9 0.00 0.00 0.00 79 1016.4
20260506093047 55 73 0.0 1.7 0.00 0.00 0.00 78 1016.4
20260506091543 55 71 0.9 2.6 0.00 0.00 0.00 78 1016.4
20260506090043 55 317 0.0 1.7 0.00 0.00 0.00 77 1016.5
20260506084542 55 305 0.0 2.6 0.00 0.00 0.00 78 1016.4
20260506083040 55 305 0.0 1.7 0.00 0.00 0.00 77 1016.3
20260506081537 55 305 0.0 0.9 0.00 0.00 0.00 77 1016.3
20260506073042 56 305 0.0 0.0 0.00 0.00 0.00 76 1016.2
20260506071530 56 305 0.0 0.0 0.00 0.00 0.00 76 1016.0
20260506061522 58 304 0.0 0.9 0.00 0.00 0.00 74 1015.4
20260506044513 61 304 0.0 2.6 0.00 0.00 0.00 66 1014.5
20260506043011 62 305 0.9 3.5 0.00 0.00 0.00 64 1014.4
20260506041522 63 308 0.9 2.6 0.00 0.00 0.00 62 1014.1
20260506040007 64 308 0.9 1.7 0.00 0.00 0.00 60 1014.0
20260506034509 64 308 0.9 1.7 0.00 0.00 0.00 58 1013.9
20260506033006 66 311 0.9 3.5 0.00 0.00 0.00 55 1013.7
20260506031512 66 230 0.0 0.9 0.00 0.00 0.00 53 1013.4
20260506030009 67 123 0.0 1.7 0.00 0.00 0.00 51 1013.2
20260506024506 68 17 0.9 2.6 0.00 0.00 0.00 50 1013.0
20260506023005 70 103 0.0 1.7 0.00 0.00 0.00 48 1012.9
20260506021506 71 101 2.6 5.2 0.00 0.00 0.00 47 1012.7
20260506020004 71 39 0.0 5.2 0.00 0.00 0.00 46 1012.6
20260506014504 72 76 1.7 5.2 0.00 0.00 0.00 46 1012.5
20260506013002 71 63 0.9 5.2 0.00 0.00 0.00 42 1012.4
20260506011501 71 325 0.9 4.3 0.00 0.00 0.00 42 1012.3
20260506010105 70 76 2.6 5.2 0.00 0.00 0.00 45 1012.3
20260506004600 69 27 1.7 4.3 0.00 0.00 0.00 46 1012.3
20260506003059 69 313 0.9 4.3 0.00 0.00 0.00 45 1012.2
20260506001618 69 329 1.7 4.3 0.00 0.00 0.00 46 1012.3
20260506000100 70 300 3.5 7.8 0.00 0.00 0.00 45 1012.4
20260505234600 70 296 1.7 7.0 0.00 0.00 0.00 46 1012.4
20260505233058 71 293 3.5 8.7 0.00 0.00 0.00 43 1012.6
20260505231557 70 297 0.9 7.0 0.00 0.00 0.00 45 1012.8
20260505230112 72 43 1.7 7.0 0.00 0.00 0.00 43 1012.7
20260505224551 71 323 1.7 7.8 0.00 0.00 0.00 42 1012.8
20260505223056 70 332 2.6 7.0 0.00 0.00 0.00 47 1012.9
20260505221553 69 40 2.6 7.0 0.00 0.00 0.00 46 1013.1
20260505220050 70 11 1.7 7.8 0.00 0.00 0.00 49 1013.3
20260505214558 68 290 1.7 7.0 0.00 0.00 0.00 50 1013.2
20260505213053 67 261 2.6 7.0 0.00 0.00 0.00 52 1013.4
20260505211540 67 311 1.7 8.7 0.00 0.00 0.00 52 1013.5
20260505210038 67 254 3.5 8.7 0.00 0.00 0.00 50 1013.7
20260505204538 66 277 0.9 7.8 0.00 0.00 0.00 53 1013.7
20260505203043 66 276 4.3 8.7 0.00 0.00 0.00 53 1013.7
20260505201546 65 270 3.5 7.0 0.00 0.00 0.00 55 1013.8
20260505200031 64 29 2.6 7.0 0.00 0.00 0.00 57 1013.8
20260505194528 64 298 3.5 7.8 0.00 0.00 0.00 59 1014.0
20260505193041 63 322 2.6 9.6 0.00 0.00 0.00 62 1013.9
20260505191524 62 266 3.5 9.6 0.00 0.00 0.00 62 1013.9
20260505190030 62 265 4.3 9.6 0.00 0.00 0.00 63 1014.1
20260505184525 62 305 4.3 9.6 0.00 0.00 0.00 64 1014.0
20260505183031 61 300 4.3 8.7 0.00 0.00 0.00 65 1013.9
20260505181521 60 263 4.3 9.6 0.00 0.00 0.00 66 1014.0
20260505180029 60 291 3.5 9.6 0.00 0.00 0.00 67 1013.8
20260505174510 59 321 3.5 9.6 0.00 0.00 0.00 69 1013.8
20260505173005 59 314 1.7 7.8 0.00 0.00 0.00 70 1013.7
20260505171506 58 300 4.3 8.7 0.00 0.00 0.00 72 1013.6
20260505170002 58 315 2.6 10.4 0.00 0.00 0.00 73 1013.5
20260505164600 58 307 4.3 9.6 0.00 0.00 0.00 73 1013.5
20260505163107 58 341 3.5 8.7 0.00 0.00 0.00 75 1013.4
20260505161554 57 313 3.5 9.6 0.00 0.00 0.00 76 1013.4
20260505153057 55 344 2.6 5.2 0.00 0.00 0.00 82 1013.2
20260505151541 55 306 3.5 7.8 0.00 0.00 0.00 82 1013.1